カタログに戻る

STARLINK-31724

運用中通信VLEO
NORAD 59554·PAYLOAD·🇺🇸 United States

打ち上げ Apr 18, 2024 から Cape Canaveral Space Force Station

Loading…

次のパス (今後24時間)

TLE

最新Source: CelesTrak SupGP

元期: Sep 15, 2026, 01:56 UTC

1 59554C 24074W   26258.08104167  .00035497  00000+0  12857-2 0  2585
2 59554  43.0009 317.9092 0001602 262.2821 298.3144 15.27559239    19

AllMySatでSTARLINK-31724をリアルタイム追跡

Download on the App Store